Location: Hawaiian Village Mobile Home Park
(32.8359°N, 116.9792°W)
Time: 06:03:11
(UTC+00:00)

Cosmos 1758 - Pass Details

Date: 01 August 2021
Orbit: 538 x 562 km, 82.5° (Epoch: 26 September)

Event Time Altitude Azimuth Distance (km) Brightness Sun altitude
Exits shadow 12:14:06 13° 226° (SW) 1,631 5.1 -9.9°
Maximum altitude 12:17:00 27° 281° (W) 1,050 4.3 -9.4°
Drops below altitude 10° 12:20:26 10° 341° (NNW) 1,812 6.1 -8.7°
Sets 12:22:51 0° 353° (N) 2,712 7.2 -8.3°
